THY1525 EDDB-LTFM

Flight info

Callsign THY1525
Flight time N/A
Altitude 35000
Route ARSAP3Q/06R ARSAP Y210 OLUMA T710 VAGON DCT KELEL DCT EXIDA DCT KEKED DCT TISAD DCT RONBU DCT BUVAK DCT RIXEN
Aircraft A320/M-SDE3FGHIRWY/LB1

Departure

Time 2026-05-05 19:04
Airport Berlin Brandenburg Airport (EDDB)

Arrival

Time N/A
Airport İstanbul Airport (LTFM)
Time Latitude Longitude Altitude Speed Heading
2026-05-05 18:31 52.36320 13.50632 155 ft 0 kts 68°
2026-05-05 18:52 52.36317 13.50618 154 ft 4 kts 71°
2026-05-05 18:52 52.36308 13.50577 154 ft 4 kts 72°
2026-05-05 18:52 52.36301 13.50534 154 ft 4 kts 86°
2026-05-05 18:52 52.36305 13.50495 154 ft 4 kts 130°
2026-05-05 18:53 52.36313 13.50482 154 ft 0 kts 159°
2026-05-05 18:54 52.36313 13.50483 154 ft 0 kts 159°
2026-05-05 18:55 52.36283 13.50502 154 ft 12 kts 159°
2026-05-05 18:55 52.36193 13.50558 154 ft 17 kts 159°
2026-05-05 18:55 52.36054 13.50647 154 ft 23 kts 158°
2026-05-05 18:55 52.35933 13.50725 155 ft 9 kts 159°
2026-05-05 18:56 52.35915 13.50736 154 ft 0 kts 159°
2026-05-05 18:56 52.35904 13.50743 154 ft 4 kts 159°
2026-05-05 18:56 52.35856 13.50772 154 ft 11 kts 159°
2026-05-05 18:57 52.35825 13.50791 154 ft 0 kts 165°
2026-05-05 18:57 52.35815 13.50785 154 ft 8 kts 202°
2026-05-05 18:57 52.35765 13.50587 154 ft 27 kts 249°
2026-05-05 18:57 52.35694 13.50288 154 ft 29 kts 248°
2026-05-05 18:58 52.35618 13.49970 154 ft 30 kts 249°
2026-05-05 18:58 52.35543 13.49656 154 ft 30 kts 249°
2026-05-05 18:58 52.35469 13.49341 154 ft 30 kts 249°
2026-05-05 18:58 52.35396 13.49029 154 ft 29 kts 248°
2026-05-05 18:59 52.35329 13.48748 154 ft 22 kts 249°
2026-05-05 18:59 52.35270 13.48502 154 ft 24 kts 248°
2026-05-05 18:59 52.35216 13.48269 154 ft 18 kts 250°
2026-05-05 18:59 52.35176 13.48105 154 ft 16 kts 248°
2026-05-05 19:00 52.35131 13.47921 154 ft 18 kts 248°
2026-05-05 19:00 52.35095 13.47778 154 ft 8 kts 243°
2026-05-05 19:00 52.35056 13.47794 154 ft 9 kts 151°
2026-05-05 19:00 52.35000 13.47769 154 ft 13 kts 245°
2026-05-05 19:01 52.34944 13.47539 154 ft 29 kts 249°
2026-05-05 19:01 52.34870 13.47227 155 ft 29 kts 249°
2026-05-05 19:01 52.34805 13.46955 156 ft 23 kts 249°
2026-05-05 19:01 52.34754 13.46773 154 ft 12 kts 216°
2026-05-05 19:02 52.34669 13.46800 154 ft 14 kts 158°
2026-05-05 19:02 52.34574 13.46862 154 ft 9 kts 158°
2026-05-05 19:02 52.34567 13.46955 154 ft 10 kts 69°
2026-05-05 19:02 52.34570 13.46966 154 ft 0 kts 67°
2026-05-05 19:03 52.34600 13.47080 154 ft 39 kts 66°
2026-05-05 19:03 52.34779 13.47840 154 ft 101 kts 69°
2026-05-05 19:03 52.35091 13.49158 155 ft 146 kts 69°
2026-05-05 19:03 52.35485 13.50840 466 ft 159 kts 70°
2026-05-05 19:04 52.35434 13.52620 1086 ft 166 kts 118°
2026-05-05 19:04 52.34696 13.54057 1807 ft 163 kts 129°
2026-05-05 19:04 52.33878 13.55432 2522 ft 160 kts 131°
2026-05-05 19:04 52.33648 13.55802 2612 ft 168 kts 133°
2026-05-05 19:05 52.33230 13.56509 2755 ft 180 kts 130°
2026-05-05 19:05 52.32296 13.58079 3040 ft 201 kts 131°
2026-05-05 19:06 52.31332 13.59810 3495 ft 210 kts 121°
2026-05-05 19:06 52.30852 13.62006 4115 ft 214 kts 94°
2026-05-05 19:06 52.31120 13.64527 4571 ft 231 kts 71°
2026-05-05 19:06 52.31623 13.67016 5277 ft 236 kts 72°
2026-05-05 19:07 52.32139 13.69593 6052 ft 241 kts 72°
2026-05-05 19:07 52.32658 13.72219 6773 ft 245 kts 74°
2026-05-05 19:07 52.32919 13.75008 7381 ft 257 kts 91°
2026-05-05 19:07 52.32823 13.78059 7736 ft 280 kts 95°
2026-05-05 19:08 52.32697 13.81287 8382 ft 288 kts 95°
2026-05-05 19:08 52.32569 13.84584 9144 ft 293 kts 95°
2026-05-05 19:08 52.32441 13.87934 9899 ft 298 kts 95°
2026-05-05 19:08 52.32313 13.91334 10596 ft 302 kts 95°
2026-05-05 19:09 52.32185 13.94782 11293 ft 306 kts 95°
2026-05-05 19:09 52.32053 13.98282 11985 ft 310 kts 96°
2026-05-05 19:09 52.31919 14.01821 12658 ft 315 kts 96°
2026-05-05 19:09 52.31783 14.05419 13349 ft 319 kts 96°
2026-05-05 19:10 52.31602 14.09055 13978 ft 322 kts 102°
2026-05-05 19:10 52.31134 14.12732 14171 ft 341 kts 105°
2026-05-05 19:10 52.30584 14.16626 14297 ft 362 kts 105°
2026-05-05 19:10 52.29996 14.20732 14436 ft 380 kts 105°
2026-05-05 19:11 52.29391 14.24985 14845 ft 387 kts 105°
2026-05-05 19:11 52.28783 14.29293 15372 ft 392 kts 105°
2026-05-05 19:11 52.28171 14.33653 15899 ft 395 kts 105°
2026-05-05 19:11 52.27553 14.38041 16444 ft 398 kts 105°
2026-05-05 19:12 52.26931 14.42460 17000 ft 401 kts 105°
2026-05-05 19:12 52.26302 14.46913 17559 ft 405 kts 105°
2026-05-05 19:12 52.25662 14.51404 18100 ft 408 kts 105°
2026-05-05 19:12 52.25013 14.55935 18578 ft 411 kts 105°
2026-05-05 19:13 52.24354 14.60498 19052 ft 415 kts 106°
2026-05-05 19:13 52.23688 14.65100 19533 ft 418 kts 106°
2026-05-05 19:13 52.22977 14.69725 20008 ft 421 kts 110°
2026-05-05 19:13 52.21903 14.74159 20463 ft 420 kts 120°
2026-05-05 19:14 52.20573 14.78411 20915 ft 423 kts 120°
2026-05-05 19:14 52.19227 14.82701 21351 ft 426 kts 120°
2026-05-05 19:14 52.17878 14.87015 21769 ft 429 kts 120°
2026-05-05 19:14 52.16976 14.89900 22053 ft 431 kts 120°
2026-05-05 19:15 52.15607 14.94268 22468 ft 434 kts 120°
2026-05-05 19:15 52.14230 14.98650 22894 ft 437 kts 121°
2026-05-05 19:15 52.12838 15.03080 23299 ft 440 kts 121°
2026-05-05 19:15 52.11437 15.07527 23655 ft 443 kts 121°
2026-05-05 19:16 52.10025 15.12003 24006 ft 446 kts 121°
2026-05-05 19:16 52.08588 15.16554 24362 ft 448 kts 121°
2026-05-05 19:16 52.07178 15.21014 24702 ft 450 kts 121°
2026-05-05 19:16 52.05742 15.25550 25040 ft 452 kts 121°
2026-05-05 19:17 52.04296 15.30102 25380 ft 454 kts 121°
2026-05-05 19:17 52.02840 15.34667 25729 ft 456 kts 121°
2026-05-05 19:17 52.01372 15.39259 26067 ft 459 kts 121°
2026-05-05 19:17 51.99900 15.43856 26411 ft 461 kts 121°
2026-05-05 19:18 51.98417 15.48483 26750 ft 463 kts 120°
2026-05-05 19:18 51.96926 15.53131 27127 ft 464 kts 120°
2026-05-05 19:18 51.95433 15.57779 27482 ft 466 kts 121°
2026-05-05 19:18 51.93931 15.62438 27945 ft 464 kts 121°
2026-05-05 19:19 51.92434 15.67061 28441 ft 463 kts 121°
2026-05-05 19:19 51.90937 15.71672 28921 ft 462 kts 121°
2026-05-05 19:19 51.89393 15.76210 29390 ft 459 kts 126°
2026-05-05 19:19 51.87611 15.80488 29840 ft 457 kts 127°
2026-05-05 19:20 51.85815 15.84724 30255 ft 456 kts 127°
2026-05-05 19:20 51.84018 15.88959 30663 ft 455 kts 127°
2026-05-05 19:20 51.82226 15.93181 31078 ft 455 kts 127°
2026-05-05 19:20 51.80461 15.97337 31481 ft 454 kts 127°
2026-05-05 19:21 51.78676 16.01534 31893 ft 453 kts 128°
2026-05-05 19:21 51.76887 16.05727 32326 ft 452 kts 128°
2026-05-05 19:21 51.74958 16.10236 32779 ft 451 kts 128°
2026-05-05 19:21 51.73321 16.14055 33163 ft 450 kts 128°
2026-05-05 19:22 51.71538 16.18209 33584 ft 450 kts 128°
2026-05-05 19:22 51.69754 16.22353 33959 ft 449 kts 128°
2026-05-05 19:22 51.67970 16.26495 34289 ft 448 kts 128°
2026-05-05 19:22 51.66192 16.30621 34609 ft 448 kts 128°
2026-05-05 19:23 51.64415 16.34745 34784 ft 450 kts 128°
2026-05-05 19:23 51.62617 16.38909 34829 ft 456 kts 128°
2026-05-05 19:23 51.58578 16.46814 34814 ft 457 kts 135°
2026-05-05 19:24 51.54288 16.54353 34814 ft 457 kts 136°
2026-05-05 19:24 51.49996 16.61861 34808 ft 456 kts 135°
2026-05-05 19:25 51.45723 16.69299 34805 ft 456 kts 135°
2026-05-05 19:25 51.41402 16.76810 34805 ft 456 kts 135°
2026-05-05 19:26 51.37102 16.84278 34807 ft 456 kts 135°
2026-05-05 19:26 51.32801 16.91730 34796 ft 456 kts 135°
2026-05-05 19:27 51.28511 16.99120 34782 ft 456 kts 135°
2026-05-05 19:27 51.24165 17.06590 34778 ft 456 kts 135°
2026-05-05 19:28 51.19875 17.13965 34783 ft 456 kts 135°
2026-05-05 19:28 51.15540 17.21372 34786 ft 456 kts 135°
2026-05-05 19:29 51.11197 17.28759 34792 ft 457 kts 135°
2026-05-05 19:29 51.06858 17.36123 34776 ft 457 kts 135°
2026-05-05 19:30 51.02504 17.43488 34780 ft 457 kts 135°
2026-05-05 19:30 50.98154 17.50851 34775 ft 457 kts 135°
2026-05-05 19:31 50.93795 17.58210 34770 ft 457 kts 136°
2026-05-05 19:31 50.89431 17.65540 34774 ft 457 kts 136°
2026-05-05 19:32 50.85063 17.72849 34769 ft 457 kts 136°
2026-05-05 19:32 50.80693 17.80150 34774 ft 457 kts 136°
2026-05-05 19:33 50.76319 17.87429 34780 ft 456 kts 136°
2026-05-05 19:33 50.71953 17.94696 34781 ft 456 kts 136°
2026-05-05 19:34 50.67577 18.01944 34780 ft 456 kts 136°
2026-05-05 19:35 50.60979 18.12789 34772 ft 456 kts 135°
2026-05-05 19:35 50.56617 18.19958 34785 ft 456 kts 136°
2026-05-05 19:36 50.52230 18.27155 34797 ft 456 kts 136°
2026-05-05 19:36 50.47838 18.34336 34801 ft 456 kts 136°
2026-05-05 19:37 50.43437 18.41507 34799 ft 456 kts 136°
2026-05-05 19:37 50.39037 18.48654 34807 ft 455 kts 136°
2026-05-05 19:38 50.34633 18.55781 34809 ft 455 kts 136°
2026-05-05 19:38 50.30223 18.62896 34809 ft 455 kts 136°
2026-05-05 19:39 50.25818 18.70000 34807 ft 455 kts 136°
2026-05-05 19:39 50.21406 18.77093 34810 ft 455 kts 136°
2026-05-05 19:40 50.16990 18.84166 34812 ft 455 kts 136°
2026-05-05 19:40 50.12572 18.91222 34812 ft 455 kts 136°
2026-05-05 19:41 50.08142 18.98275 34823 ft 455 kts 136°
2026-05-05 19:41 50.03711 19.05311 34826 ft 455 kts 136°
2026-05-05 19:42 49.99279 19.12325 34823 ft 455 kts 136°
2026-05-05 19:42 49.94841 19.19337 34810 ft 455 kts 136°
2026-05-05 19:43 49.90398 19.26338 34821 ft 455 kts 137°
2026-05-05 19:43 49.85953 19.33321 34821 ft 456 kts 137°
2026-05-05 19:44 49.81493 19.40319 34839 ft 456 kts 137°
2026-05-05 19:44 49.77029 19.47292 34836 ft 456 kts 137°
2026-05-05 19:45 49.72559 19.54251 34846 ft 456 kts 137°
2026-05-05 19:45 49.68091 19.61194 34845 ft 456 kts 137°
2026-05-05 19:46 49.63608 19.68126 34844 ft 456 kts 136°
2026-05-05 19:46 49.59160 19.74989 34845 ft 455 kts 137°
2026-05-05 19:47 49.54682 19.81896 34858 ft 455 kts 136°
2026-05-05 19:47 49.50204 19.88777 34854 ft 455 kts 137°
2026-05-05 19:48 49.45720 19.95646 34857 ft 455 kts 137°
2026-05-05 19:48 49.41237 20.02496 34860 ft 455 kts 137°
2026-05-05 19:49 49.36743 20.09341 34871 ft 455 kts 137°
2026-05-05 19:49 49.32232 20.16175 34870 ft 455 kts 137°
2026-05-05 19:50 49.27681 20.22937 34867 ft 455 kts 138°
2026-05-05 19:50 49.23056 20.29552 34871 ft 455 kts 139°
2026-05-05 19:51 49.18437 20.36101 34896 ft 455 kts 139°
2026-05-05 19:51 49.13817 20.42700 34906 ft 455 kts 138°
2026-05-05 19:52 49.09197 20.49321 34910 ft 455 kts 139°
2026-05-05 19:52 49.04581 20.55904 34903 ft 455 kts 139°
2026-05-05 19:53 48.99956 20.62469 34890 ft 454 kts 139°